Location: Anumalkud?ru
(16.4847°N, 80.6636°E)
Time: 10:29:06
(UTC+00:00)

H-2A R/B - Pass Details

Date: 11 April 2026
Orbit: 268 x 27897 km, 28.3° (Epoch: 20 May)

Event Time Altitude Azimuth Distance (km) Brightness Sun altitude
Rises 12:17:39 0° 293° (WNW) 17,432 11.1 7.3°
Reaches altitude 10° 12:44:04 10° 293° (WNW) 10,057 10.0 1.0°
Maximum altitude 13:06:48 62° 217° (SW) 1,361 4.0 -4.3°
Drops below altitude 10° 13:10:47 10° 135° (SE) 1,995 4.2 -5.3°
Enters shadow 13:11:40 - 131° (SE) 2,380 4.5 -5.5°
